PAS729 WASS-WAPP

Flight info

Callsign PAS729
Flight time 0h 44m
Altitude 32000
Route WASS/09 RUMIT1F RUMIT W44 FALAM FALAM1F WAPP/22
Aircraft A20N/M-VGDW/C

Departure

Time 2026-04-22 15:15
Airport Domine Eduard Osok Airport (WASS)

Arrival

Time 2026-04-22 16:00
Airport Pattimura International Airport (WAPP)
Time Latitude Longitude Altitude Speed Heading
2026-04-22 15:04 -0.89170 131.28992 24 ft 0 kts
2026-04-22 15:05 -0.89172 131.28992 24 ft 1 kts
2026-04-22 15:05 -0.89187 131.28990 24 ft 2 kts
2026-04-22 15:05 -0.89203 131.28989 24 ft 2 kts
2026-04-22 15:05 -0.89218 131.28989 24 ft 2 kts
2026-04-22 15:06 -0.89228 131.28987 24 ft 2 kts
2026-04-22 15:06 -0.89242 131.28986 24 ft 2 kts 354°
2026-04-22 15:06 -0.89256 131.28992 24 ft 2 kts 316°
2026-04-22 15:06 -0.89264 131.29005 24 ft 1 kts 282°
2026-04-22 15:07 -0.89265 131.29011 24 ft 1 kts 268°
2026-04-22 15:07 -0.89265 131.29015 24 ft 0 kts 273°
2026-04-22 15:09 -0.89265 131.29013 24 ft 0 kts 273°
2026-04-22 15:09 -0.89264 131.29009 24 ft 1 kts 273°
2026-04-22 15:10 -0.89263 131.28992 24 ft 4 kts 275°
2026-04-22 15:10 -0.89259 131.28949 24 ft 6 kts 275°
2026-04-22 15:10 -0.89282 131.28912 24 ft 8 kts 197°
2026-04-22 15:10 -0.89342 131.28908 24 ft 9 kts 183°
2026-04-22 15:11 -0.89409 131.28897 24 ft 9 kts 225°
2026-04-22 15:11 -0.89409 131.28825 24 ft 11 kts 275°
2026-04-22 15:11 -0.89403 131.28734 24 ft 15 kts 272°
2026-04-22 15:11 -0.89394 131.28610 24 ft 19 kts 274°
2026-04-22 15:12 -0.89385 131.28464 25 ft 21 kts 273°
2026-04-22 15:12 -0.89375 131.28316 27 ft 20 kts 274°
2026-04-22 15:12 -0.89366 131.28172 26 ft 20 kts 274°
2026-04-22 15:12 -0.89356 131.28027 26 ft 20 kts 274°
2026-04-22 15:13 -0.89344 131.27882 24 ft 21 kts 282°
2026-04-22 15:13 -0.89329 131.27799 23 ft 2 kts 158°
2026-04-22 15:13 -0.89343 131.27837 23 ft 6 kts 101°
2026-04-22 15:13 -0.89345 131.27853 23 ft 0 kts 94°
2026-04-22 15:15 -0.89347 131.27893 24 ft 30 kts 93°
2026-04-22 15:15 -0.89379 131.28380 26 ft 107 kts 93°
2026-04-22 15:15 -0.89446 131.29341 49 ft 164 kts 92°
2026-04-22 15:15 -0.89524 131.30475 682 ft 166 kts 92°
2026-04-22 15:16 -0.89629 131.31609 1445 ft 167 kts 92°
2026-04-22 15:16 -0.89710 131.32738 2143 ft 168 kts 95°
2026-04-22 15:16 -0.90267 131.33818 2520 ft 192 kts 139°
2026-04-22 15:16 -0.91582 131.34329 2923 ft 214 kts 164°
2026-04-22 15:17 -0.93127 131.34662 3355 ft 234 kts 165°
2026-04-22 15:17 -0.94759 131.35027 3894 ft 250 kts 164°
2026-04-22 15:17 -0.96509 131.35460 4395 ft 268 kts 163°
2026-04-22 15:17 -0.98348 131.35945 5080 ft 278 kts 162°
2026-04-22 15:18 -1.00219 131.36449 5937 ft 280 kts 165°
2026-04-22 15:18 -1.02177 131.36490 6720 ft 288 kts 194°
2026-04-22 15:18 -1.03904 131.35484 7501 ft 294 kts 227°
2026-04-22 15:18 -1.04983 131.33769 8244 ft 298 kts 244°
2026-04-22 15:19 -1.05871 131.31897 8975 ft 303 kts 245°
2026-04-22 15:19 -1.06808 131.29988 9720 ft 307 kts 243°
2026-04-22 15:19 -1.07794 131.28102 10412 ft 312 kts 242°
2026-04-22 15:19 -1.08858 131.26161 10820 ft 328 kts 241°
2026-04-22 15:20 -1.09619 131.24803 11035 ft 340 kts 240°
2026-04-22 15:20 -1.11224 131.21986 11516 ft 361 kts 240°
2026-04-22 15:20 -1.12488 131.19781 12116 ft 367 kts 240°
2026-04-22 15:20 -1.13748 131.17589 12786 ft 370 kts 240°
2026-04-22 15:21 -1.15048 131.15324 13413 ft 374 kts 240°
2026-04-22 15:21 -1.16344 131.13068 14043 ft 377 kts 240°
2026-04-22 15:21 -1.17683 131.10806 14653 ft 381 kts 237°
2026-04-22 15:21 -1.19208 131.08667 15217 ft 385 kts 231°
2026-04-22 15:22 -1.20966 131.06650 15815 ft 387 kts 226°
2026-04-22 15:22 -1.22850 131.04674 16383 ft 390 kts 225°
2026-04-22 15:22 -1.24726 131.02734 16947 ft 393 kts 225°
2026-04-22 15:22 -1.26630 131.00766 17450 ft 397 kts 225°
2026-04-22 15:23 -1.28552 130.98770 17995 ft 399 kts 225°
2026-04-22 15:23 -1.30476 130.96767 18500 ft 402 kts 225°
2026-04-22 15:23 -1.32416 130.94743 19000 ft 405 kts 225°
2026-04-22 15:23 -1.34360 130.92714 19491 ft 407 kts 226°
2026-04-22 15:24 -1.36328 130.90659 20006 ft 408 kts 225°
2026-04-22 15:24 -1.38303 130.88594 20471 ft 411 kts 226°
2026-04-22 15:24 -1.40273 130.86534 20934 ft 413 kts 226°
2026-04-22 15:24 -1.42262 130.84454 21397 ft 415 kts 226°
2026-04-22 15:25 -1.44263 130.82361 21836 ft 417 kts 225°
2026-04-22 15:25 -1.46258 130.80275 22270 ft 419 kts 225°
2026-04-22 15:25 -1.48280 130.78159 22698 ft 422 kts 225°
2026-04-22 15:25 -1.50334 130.76012 23115 ft 424 kts 226°
2026-04-22 15:26 -1.52358 130.73897 23533 ft 427 kts 226°
2026-04-22 15:26 -1.54409 130.71703 23944 ft 430 kts 229°
2026-04-22 15:26 -1.56223 130.69353 24323 ft 433 kts 235°
2026-04-22 15:26 -1.57790 130.66739 24713 ft 436 kts 242°
2026-04-22 15:27 -1.59091 130.64021 25100 ft 439 kts 245°
2026-04-22 15:27 -1.60357 130.61217 25474 ft 442 kts 245°
2026-04-22 15:27 -1.61609 130.58420 25851 ft 444 kts 245°
2026-04-22 15:27 -1.62877 130.55600 26199 ft 447 kts 245°
2026-04-22 15:28 -1.64156 130.52771 26542 ft 449 kts 245°
2026-04-22 15:28 -1.65456 130.49910 26888 ft 452 kts 245°
2026-04-22 15:28 -1.66748 130.47075 27234 ft 454 kts 245°
2026-04-22 15:28 -1.68062 130.44191 27577 ft 456 kts 245°
2026-04-22 15:29 -1.69379 130.41304 27903 ft 458 kts 245°
2026-04-22 15:29 -1.70693 130.38423 28233 ft 460 kts 244°
2026-04-22 15:29 -1.72023 130.35509 28658 ft 459 kts 244°
2026-04-22 15:30 -1.74223 130.30684 29398 ft 458 kts 244°
2026-04-22 15:30 -1.75973 130.26851 29951 ft 457 kts 244°
2026-04-22 15:30 -1.77304 130.23935 30347 ft 457 kts 245°
2026-04-22 15:30 -1.78676 130.21078 30677 ft 459 kts 242°
2026-04-22 15:31 -1.80221 130.18274 30982 ft 460 kts 238°
2026-04-22 15:31 -1.81918 130.15581 31292 ft 461 kts 234°
2026-04-22 15:31 -1.83780 130.12984 31588 ft 462 kts 231°
2026-04-22 15:31 -1.85817 130.10472 31830 ft 463 kts 227°
2026-04-22 15:32 -1.87947 130.08098 31856 ft 464 kts 226°
2026-04-22 15:32 -1.92317 130.03363 31855 ft 464 kts 226°
2026-04-22 15:33 -1.96695 129.98612 31859 ft 464 kts 226°
2026-04-22 15:33 -2.01073 129.93843 31871 ft 464 kts 226°
2026-04-22 15:34 -2.05414 129.89105 31873 ft 464 kts 226°
2026-04-22 15:34 -2.09781 129.84337 31871 ft 464 kts 226°
2026-04-22 15:35 -2.13425 129.80359 31869 ft 464 kts 226°
2026-04-22 15:35 -2.18488 129.74829 31866 ft 463 kts 226°
2026-04-22 15:36 -2.22848 129.70070 31866 ft 463 kts 226°
2026-04-22 15:36 -2.27175 129.65344 31867 ft 462 kts 226°
2026-04-22 15:37 -2.31512 129.60608 31868 ft 463 kts 226°
2026-04-22 15:37 -2.35860 129.55856 31869 ft 463 kts 226°
2026-04-22 15:38 -2.40234 129.51076 31868 ft 463 kts 226°
2026-04-22 15:38 -2.46757 129.43941 31622 ft 466 kts 226°
2026-04-22 15:39 -2.48944 129.41547 30783 ft 472 kts 226°
2026-04-22 15:39 -2.51145 129.39145 29999 ft 473 kts 226°
2026-04-22 15:39 -2.53381 129.36710 29271 ft 472 kts 226°
2026-04-22 15:39 -2.55601 129.34288 28551 ft 471 kts 226°
2026-04-22 15:40 -2.57796 129.31897 27809 ft 470 kts 226°
2026-04-22 15:40 -2.59977 129.29520 27251 ft 465 kts 226°
2026-04-22 15:40 -2.62162 129.27136 26740 ft 459 kts 226°
2026-04-22 15:40 -2.64298 129.24806 26230 ft 453 kts 226°
2026-04-22 15:41 -2.66426 129.22484 25713 ft 448 kts 226°
2026-04-22 15:41 -2.68517 129.20203 25194 ft 444 kts 226°
2026-04-22 15:41 -2.70589 129.17940 24681 ft 440 kts 226°
2026-04-22 15:41 -2.72644 129.15698 24182 ft 436 kts 226°
2026-04-22 15:42 -2.74681 129.13475 23676 ft 432 kts 227°
2026-04-22 15:42 -2.76708 129.11263 23176 ft 428 kts 227°
2026-04-22 15:42 -2.78690 129.09099 22682 ft 425 kts 227°
2026-04-22 15:42 -2.80687 129.06918 22163 ft 423 kts 227°
2026-04-22 15:43 -2.82683 129.04739 21654 ft 420 kts 227°
2026-04-22 15:43 -2.84627 129.02617 21147 ft 418 kts 227°
2026-04-22 15:43 -2.86590 129.00475 20640 ft 416 kts 227°
2026-04-22 15:43 -2.88551 128.98332 20106 ft 415 kts 227°
2026-04-22 15:44 -2.90495 128.96210 19565 ft 413 kts 227°
2026-04-22 15:44 -2.92437 128.94087 19012 ft 413 kts 227°
2026-04-22 15:44 -2.94353 128.91997 18477 ft 411 kts 227°
2026-04-22 15:44 -2.96291 128.89880 17936 ft 410 kts 227°
2026-04-22 15:45 -2.98205 128.87790 17413 ft 408 kts 227°
2026-04-22 15:45 -3.00105 128.85715 16906 ft 405 kts 227°
2026-04-22 15:45 -3.02023 128.83620 16379 ft 403 kts 227°
2026-04-22 15:45 -3.03899 128.81572 15877 ft 400 kts 227°
2026-04-22 15:46 -3.05761 128.79536 15376 ft 397 kts 227°
2026-04-22 15:46 -3.07616 128.77508 14885 ft 393 kts 227°
2026-04-22 15:46 -3.09459 128.75494 14384 ft 390 kts 227°
2026-04-22 15:46 -3.11277 128.73508 13893 ft 387 kts 227°
2026-04-22 15:47 -3.13093 128.71523 13388 ft 383 kts 227°
2026-04-22 15:47 -3.14868 128.69583 12897 ft 380 kts 227°
2026-04-22 15:47 -3.16658 128.67625 12400 ft 377 kts 227°
2026-04-22 15:47 -3.18410 128.65710 11893 ft 375 kts 227°
2026-04-22 15:48 -3.20173 128.63783 11382 ft 373 kts 227°
2026-04-22 15:48 -3.21924 128.61870 10872 ft 371 kts 227°
2026-04-22 15:48 -3.23651 128.59982 10457 ft 365 kts 227°
2026-04-22 15:48 -3.25329 128.58147 10255 ft 353 kts 227°
2026-04-22 15:49 -3.26996 128.56372 10093 ft 340 kts 223°
2026-04-22 15:49 -3.28762 128.54889 9952 ft 326 kts 214°
2026-04-22 15:49 -3.30622 128.53647 9725 ft 318 kts 211°
2026-04-22 15:49 -3.32491 128.52475 9346 ft 315 kts 210°
2026-04-22 15:50 -3.34364 128.51308 8967 ft 313 kts 211°
2026-04-22 15:50 -3.36192 128.50162 8601 ft 311 kts 211°
2026-04-22 15:50 -3.38023 128.49005 8235 ft 308 kts 211°
2026-04-22 15:50 -3.39813 128.47870 7884 ft 305 kts 211°
2026-04-22 15:51 -3.41617 128.46722 7524 ft 303 kts 211°
2026-04-22 15:51 -3.43383 128.45592 7164 ft 301 kts 212°
2026-04-22 15:51 -3.45142 128.44450 6810 ft 298 kts 212°
2026-04-22 15:51 -3.46870 128.43327 6464 ft 295 kts 212°
2026-04-22 15:52 -3.48579 128.42215 6129 ft 293 kts 212°
2026-04-22 15:52 -3.50291 128.41103 5790 ft 290 kts 212°
2026-04-22 15:52 -3.51972 128.40008 5516 ft 285 kts 212°
2026-04-22 15:52 -3.53612 128.38943 5475 ft 270 kts 212°
2026-04-22 15:53 -3.55131 128.37958 5471 ft 255 kts 212°
2026-04-22 15:53 -3.56595 128.36998 5438 ft 243 kts 216°
2026-04-22 15:53 -3.57793 128.35811 5166 ft 243 kts 237°
2026-04-22 15:53 -3.58545 128.34334 4901 ft 241 kts 248°
2026-04-22 15:54 -3.59158 128.32759 4604 ft 240 kts 250°
2026-04-22 15:54 -3.59753 128.31194 4317 ft 240 kts 249°
2026-04-22 15:54 -3.60354 128.29649 4035 ft 239 kts 249°
2026-04-22 15:54 -3.60958 128.28128 3750 ft 234 kts 249°
2026-04-22 15:55 -3.61563 128.26625 3468 ft 227 kts 248°
2026-04-22 15:55 -3.62144 128.25191 3199 ft 219 kts 248°
2026-04-22 15:55 -3.62718 128.23802 2941 ft 213 kts 245°
2026-04-22 15:55 -3.63411 128.22545 2839 ft 199 kts 237°
2026-04-22 15:56 -3.64205 128.21462 2703 ft 186 kts 228°
2026-04-22 15:56 -3.65055 128.20583 2588 ft 167 kts 224°
2026-04-22 15:56 -3.65843 128.19814 2443 ft 151 kts 224°
2026-04-22 15:56 -3.66591 128.19087 2267 ft 147 kts 224°
2026-04-22 15:57 -3.67325 128.18370 2063 ft 148 kts 224°
2026-04-22 15:57 -3.68054 128.17645 1797 ft 146 kts 226°
2026-04-22 15:57 -3.68572 128.16777 1642 ft 146 kts 258°
2026-04-22 15:57 -3.68499 128.15796 1428 ft 143 kts 295°
2026-04-22 15:58 -3.68112 128.14890 1333 ft 143 kts 291°
2026-04-22 15:58 -3.67843 128.13916 1060 ft 143 kts 280°
2026-04-22 15:58 -3.67862 128.12935 910 ft 144 kts 259°
2026-04-22 15:58 -3.68190 128.11987 678 ft 144 kts 242°
2026-04-22 15:59 -3.68782 128.11197 477 ft 142 kts 224°
2026-04-22 15:59 -3.69493 128.10490 313 ft 143 kts 224°
2026-04-22 15:59 -3.70200 128.09792 102 ft 142 kts 225°
2026-04-22 15:59 -3.70855 128.09139 74 ft 115 kts 225°
2026-04-22 16:00 -3.71305 128.08690 62 ft 66 kts 226°
2026-04-22 16:00 -3.71509 128.08482 54 ft 19 kts 239°
2026-04-22 16:00 -3.71536 128.08456 53 ft 5 kts 68°
2026-04-22 16:00 -3.71508 128.08487 54 ft 6 kts 45°
2026-04-22 16:01 -3.71470 128.08525 56 ft 8 kts 45°
2026-04-22 16:01 -3.71408 128.08586 58 ft 14 kts 45°
2026-04-22 16:01 -3.71328 128.08667 61 ft 17 kts 45°
2026-04-22 16:01 -3.71242 128.08752 66 ft 18 kts 45°
2026-04-22 16:02 -3.71145 128.08850 68 ft 20 kts 45°
2026-04-22 16:02 -3.71051 128.08821 72 ft 14 kts 314°
2026-04-22 16:02 -3.70974 128.08768 74 ft 12 kts 349°
2026-04-22 16:02 -3.70893 128.08765 78 ft 10 kts
2026-04-22 16:03 -3.70826 128.08765 80 ft 8 kts 360°
2026-04-22 16:03 -3.70771 128.08765 82 ft 6 kts
2026-04-22 16:03 -3.70718 128.08772 84 ft 7 kts 24°
2026-04-22 16:03 -3.70670 128.08780 86 ft 6 kts 360°
2026-04-22 16:04 -3.70638 128.08780 88 ft 2 kts
2026-04-22 16:04 -3.70628 128.08780 88 ft 0 kts